Location: *
(58.7167°N, 26.1833°E)
Time: 00:31:20
(UTC+00:00)

Lacrosse 4 Rocket - Pass Details

Date: 25 August 2019
Orbit: 543 x 616 km, 68.0° (Epoch: 17 September)

Event Time Altitude Azimuth Distance (km) Brightness Sun altitude
Rises 20:46:34 0° 314° (NW) 2,792 6.2 -18.3°
Reaches altitude 10° 20:48:49 10° 313° (NW) 1,878 5.0 -18.4°
Maximum altitude 20:53:01 78° 227° (SW) 579 1.3 -18.6°
Enters shadow 20:54:08 47° 152° (SSE) 748 1.5 -18.6°
